Weather History for Port Lavaca, TX

Change the Weather History Date:

Thursday, June 27, 2013

  Actual Average (KVCT) Record (KVCT)
Temperature  
Mean Temperature 84 °F 83 °F  
Max Temperature 94 °F 93 °F 103 °F (1916)
Min Temperature 74 °F 74 °F 63 °F (1974)
Degree Days  
Heating Degree Days 0 0  
Month to date heating degree days 0  
Since 1 June heating degree days 0  
Since 1 July heating degree days 1249  
Cooling Degree Days 18 18  
Month to date cooling degree days 454  
Year to date cooling degree days 1113  
Since 1 June cooling degree days 454  
Growing Degree Days 34 (Base 50)    
Moisture  
Dew Point 72 °F    
Average Humidity 72    
Maximum Humidity 93    
Minimum Humidity 39    
Precipitation  
Precipitation 0.00 in 0.14 in 2.98 in (1975)
Month to date precipitation 4.06  
Year to date precipitation 19.44  
Snow  
Snow 0.00 in - - ()
Month to date snowfall  
Since 1 June snowfall  
Since 1 July snowfall  
Snow Depth -    
Sea Level Pressure  
Sea Level Pressure 29.96 in    
Wind  
Wind Speed 6 mph (SSE)    
Max Wind Speed 16 mph    
Max Gust Speed 21 mph    
Visibility 10 miles    
Events      
T = Trace of Precipitation, MM = Missing Value Source: NWS Daily Summary

Daily Weather History Graph

Daily Weather History Graph

Search for Another Location

Airport:

Trip Planner

Search our weather history database for the weather conditions in past years. The results will help you decide how hot, cold, wet, or windy it might be!

Date:

Astronomy

Jun. 27, 2013 Rise Set
Actual Time 6:31 AM CDT 8:28 PM CDT
Civil Twilight 6:04 AM CDT 8:55 PM CDT
Nautical Twilight 5:31 AM CDT 9:28 PM CDT
Astronomical Twilight 4:56 AM CDT 10:02 PM CDT
Moon 11:54 PM CDT (6/27) 11:08 AM CDT (6/27)
Length of Visible Light 14h 51m
Length of Day
13h 57m
Waning Gibbous, 76% of the Moon is Illuminated
Jun 27
Waning Gibbous
Jun 29
Last Quarter
Jul 8
New
Jul 15
First Quarter
Jul 22
Full

Hourly Weather History & Observations

Time (CDT) Temp. Heat Index Dew Point Humidity Pressure Visibility Wind Dir Wind Speed Gust Speed Precip Events Conditions
12:15 AM 77.9 °F - 73.8 °F 87% 29.97 in 10.0 mi South 4.6 mph - N/A   Scattered Clouds
12:35 AM 77.2 °F - 73.8 °F 89% 29.98 in 10.0 mi South 3.5 mph - N/A   Scattered Clouds
1:15 AM 77.4 °F - 74.3 °F 90% 29.98 in 10.0 mi South 4.6 mph - N/A   Clear
1:35 AM 77.4 °F - 74.3 °F 90% 29.98 in 7.0 mi South 5.8 mph - N/A   Scattered Clouds
1:55 AM 77.0 °F - 74.1 °F 91% 29.98 in 7.0 mi SSE 5.8 mph - N/A   Scattered Clouds
2:15 AM 77.2 °F - 74.3 °F 91% 29.98 in 7.0 mi South 4.6 mph - N/A   Scattered Clouds
2:35 AM 77.0 °F - 73.8 °F 90% 29.97 in 10.0 mi South 4.6 mph - N/A   Scattered Clouds
2:55 AM 76.6 °F - 73.6 °F 90% 29.97 in 10.0 mi South 3.5 mph - N/A   Scattered Clouds
3:15 AM 76.1 °F - 73.4 °F 91% 29.97 in 7.0 mi South 4.6 mph - N/A   Scattered Clouds
3:35 AM 76.1 °F - 73.4 °F 91% 29.98 in 7.0 mi SSE 4.6 mph - N/A   Scattered Clouds
3:55 AM 76.1 °F - 73.4 °F 91% 29.98 in 10.0 mi SSE 5.8 mph - N/A   Scattered Clouds
4:15 AM 76.1 °F - 72.9 °F 90% 29.98 in 10.0 mi South 4.6 mph - N/A   Scattered Clouds
4:35 AM 76.1 °F - 72.9 °F 90% 29.98 in 10.0 mi South 4.6 mph - N/A   Scattered Clouds
4:55 AM 75.6 °F - 72.5 °F 90% 29.97 in 10.0 mi South 3.5 mph - N/A   Scattered Clouds
5:15 AM 74.7 °F - 72.1 °F 92% 29.98 in 10.0 mi SSE 3.5 mph - N/A   Clear
5:35 AM 75.2 °F - 72.5 °F 91% 29.98 in 10.0 mi South 3.5 mph - N/A   Scattered Clouds
5:55 AM 75.4 °F - 72.7 °F 91% 29.98 in 7.0 mi South 4.6 mph - N/A   Scattered Clouds
6:15 AM 74.8 °F - 72.3 °F 92% 29.99 in 10.0 mi South 3.5 mph - N/A   Scattered Clouds
6:35 AM 74.8 °F - 72.0 °F 91% 29.98 in 7.0 mi SSW 3.5 mph - N/A   Scattered Clouds
6:55 AM 74.5 °F - 72.0 °F 92% 29.98 in 7.0 mi Calm Calm - N/A   Clear
7:15 AM 74.8 °F - 72.7 °F 93% 29.99 in 7.0 mi Calm Calm - N/A   Clear
8:35 AM 81.9 °F 88.0 °F 74.5 °F 78% 30.01 in 10.0 mi SSW 6.9 mph - N/A   Scattered Clouds
11:35 AM 89.2 °F 92.4 °F 67.1 °F 48% 30.01 in 10.0 mi South 9.2 mph - N/A   Clear
11:55 AM 90.7 °F 94.1 °F 67.1 °F 46% 30.01 in 10.0 mi SSW 8.1 mph - N/A   Clear
12:15 PM 91.2 °F 93.3 °F 65.3 °F 42% 30.00 in 10.0 mi SE 4.6 mph - N/A   Clear
12:35 PM 91.6 °F 94.3 °F 66.0 °F 43% 29.99 in 10.0 mi South 4.6 mph - N/A   Clear
12:55 PM 92.1 °F 94.8 °F 66.0 °F 42% 29.99 in 10.0 mi South 9.2 mph - N/A   Clear
1:15 PM 92.5 °F 94.1 °F 64.0 °F 39% 29.98 in 10.0 mi SW 5.8 mph - N/A   Clear
1:35 PM 92.1 °F 95.7 °F 67.5 °F 44% 29.98 in 10.0 mi South 3.5 mph - N/A   Clear
1:55 PM 91.9 °F 99.0 °F 71.6 °F 51% 29.97 in 10.0 mi ESE 11.5 mph 16.1 mph N/A   Clear
2:15 PM 92.7 °F 100.5 °F 72.3 °F 51% 29.97 in 10.0 mi ESE 12.7 mph 17.3 mph N/A   Clear
2:35 PM 91.2 °F 99.1 °F 72.3 °F 54% 29.96 in 10.0 mi ESE 12.7 mph - N/A   Clear
2:55 PM 91.8 °F 99.7 °F 72.5 °F 53% 29.95 in 10.0 mi East 15.0 mph - N/A   Clear
3:15 PM 91.9 °F 100.1 °F 72.5 °F 53% 29.95 in 10.0 mi ESE 12.7 mph - N/A   Clear
3:35 PM 91.4 °F 99.5 °F 72.9 °F 54% 29.95 in 10.0 mi East 15.0 mph - N/A   Clear
3:55 PM 92.5 °F 100.1 °F 71.8 °F 51% 29.94 in 10.0 mi East 16.1 mph - N/A   Clear
4:15 PM 93.7 °F 99.9 °F 70.2 °F 46% 29.94 in 10.0 mi SE 11.5 mph 20.7 mph N/A   Clear
4:35 PM 93.6 °F 99.0 °F 69.3 °F 45% 29.94 in 10.0 mi SSE 13.8 mph 17.3 mph N/A   Clear
4:55 PM 91.9 °F 96.9 °F 69.3 °F 47% 29.94 in 10.0 mi South 12.7 mph 18.4 mph N/A   Clear
5:15 PM 91.4 °F 96.8 °F 69.6 °F 49% 29.94 in 10.0 mi South 12.7 mph 18.4 mph N/A   Clear
5:35 PM 91.0 °F 96.1 °F 69.4 °F 49% 29.94 in 10.0 mi SSE 12.7 mph 18.4 mph N/A   Clear
5:55 PM 90.7 °F 95.9 °F 69.8 °F 50% 29.93 in 10.0 mi SSE 11.5 mph - N/A   Clear
6:15 PM 89.6 °F 94.7 °F 70.0 °F 52% 29.93 in 10.0 mi SSE 13.8 mph - N/A   Clear
6:35 PM 88.7 °F 94.8 °F 71.1 °F 56% 29.93 in 10.0 mi SSE 11.5 mph - N/A   Clear
6:55 PM 88.0 °F 93.4 °F 70.7 °F 56% 29.93 in 10.0 mi SSE 11.5 mph 16.1 mph N/A   Clear
7:15 PM 86.7 °F 92.1 °F 70.9 °F 59% 29.94 in 10.0 mi SSE 10.4 mph - N/A   Clear
7:35 PM 85.5 °F 91.5 °F 72.0 °F 64% 29.94 in 10.0 mi SSE 9.2 mph - N/A   Clear
7:55 PM 84.2 °F 90.3 °F 72.7 °F 68% 29.93 in 10.0 mi SSE 11.5 mph - N/A   Clear
8:15 PM 82.8 °F 88.4 °F 73.0 °F 72% 29.94 in 10.0 mi SSE 9.2 mph - N/A   Clear
8:35 PM 81.7 °F 87.1 °F 73.6 °F 76% 29.94 in 10.0 mi SSE 9.2 mph - N/A   Clear
8:55 PM 80.6 °F 85.5 °F 73.9 °F 80% 29.94 in 10.0 mi SSE 6.9 mph - N/A   Clear
9:15 PM 79.7 °F - 73.8 °F 82% 29.95 in 10.0 mi SSE 6.9 mph - N/A   Clear
9:35 PM 79.0 °F - 73.8 °F 84% 29.94 in 10.0 mi South 6.9 mph - N/A   Clear
9:55 PM 78.3 °F - 73.8 °F 86% 29.95 in 10.0 mi SSE 4.6 mph - N/A   Clear
10:15 PM 77.9 °F - 73.6 °F 86% 29.95 in 10.0 mi South 4.6 mph - N/A   Clear
10:35 PM 77.5 °F - 73.4 °F 87% 29.95 in 10.0 mi South 6.9 mph - N/A   Clear
10:55 PM 77.4 °F - 73.6 °F 88% 29.95 in 10.0 mi South 5.8 mph - N/A   Clear
11:15 PM 77.2 °F - 73.6 °F 89% 29.94 in 10.0 mi South 6.9 mph - N/A   Clear
11:35 PM 77.2 °F - 73.6 °F 89% 29.94 in 10.0 mi South 5.8 mph - N/A   Clear
11:55 PM 77.2 °F - 73.6 °F 89% 29.94 in 10.0 mi South 5.8 mph - N/A   Clear